Location: Newark
(13.6797°N, 8.5297°E)
Time: 20:52:37
(UTC+00:00)

SR - Pass Details

Date: 28 January 2020
Orbit: 575 x 880 km, 66.7° (Epoch: 22 February)

Event Time Altitude Azimuth Distance (km) Brightness Sun altitude
Rises 19:41:03 0° 202° (SSW) 3,244 ? -32.9°
Reaches altitude 10° 19:43:22 10° 203° (SSW) 2,360 ? -33.4°
Enters shadow 19:45:57 30° 205° (SSW) 1,437 ? -34.1°
Maximum altitude 19:48:52 83° 290° (WNW) 845 - -34.7°
Drops below altitude 10° 19:54:42 10° 19° (NNE) 2,506 - -36.1°
Sets 19:57:14 0° 20° (NNE) 3,460 - -36.7°
